map of HME home
HME - Airport
Location
City:  Hassi Messaoud, Ouargla, Algeria
Name:Oued Irara-Krim Belkacem Airport
ICAO:DAUH
IATA:HME

Details
Type:Airport (Aerodrome, Airfield)
Use:Public/Civil, International (customs port of entry)
Latitude:3140'26"N (31.673889)
Longitude:608'26"E (6.140556)
Elevation:459 ft (140 m)
Variation:1.51E (WMM2015 magnetic declination)
0.09 annual change
Runways:1
Longest:9843 × 148 ft (3000 × 45 m)

Time
Time Zone:UTC+1
Local Time:

Weather
METAR:DAUH 190230Z 00000KT CAVOK 06/01 Q1027
TAF:DAUH 182300Z 1900/1924 08006KT CAVOK

Related Locations
Nearby:
Farthest:NZOP: 11772 mi / 18946 km
Opotiki, BOP, NZ

Find:

   beyond  
but within

Other Information
Maps:
NOTAMs:
Links:
Sources:

  
  • flag of Algeria
  

Sectional Chart

Flight Planning
at skyvector.com

Satellite Image

Google Maps Satellite view

 

Copyright © 2004-2018 Karl L. Swartz. All rights reserved.
The Great Circle Mapper name and logo are trademarks of the Great Circle Mapper.
All other trademarks mentioned herein belong to their respective owners.
Please see credits for attibutions and further copyright information.

  Follow gcmap on Facebook Follow gcmap on Twitter Follow gcmap on Google+ GCmap on LinkedIn

hCard Microformat

Geo Microformat